Year,Month,Day,Hour,Minute,Value (Times are PST for temperature in C)
2010,08,13,00,00,15.80
2010,08,13,00,01,15.80
2010,08,13,00,02,15.80
2010,08,13,00,03,15.80
2010,08,13,00,04,15.80
2010,08,13,00,05,15.80
2010,08,13,00,06,15.80
2010,08,13,00,07,15.80
2010,08,13,00,08,15.80
2010,08,13,00,09,15.80
2010,08,13,00,10,15.80
2010,08,13,00,11,15.80
2010,08,13,00,12,15.70
2010,08,13,00,13,15.70
2010,08,13,00,14,15.70
2010,08,13,00,15,15.70
2010,08,13,00,16,15.70
2010,08,13,00,17,15.70
2010,08,13,00,18,15.70
2010,08,13,00,19,15.70
2010,08,13,00,20,15.70
2010,08,13,00,21,15.70
2010,08,13,00,22,15.70
2010,08,13,00,23,15.70
2010,08,13,00,24,15.70
2010,08,13,00,25,15.80
2010,08,13,00,26,15.80
2010,08,13,00,27,15.80
2010,08,13,00,28,15.80
2010,08,13,00,29,15.80
2010,08,13,00,30,15.80
2010,08,13,00,31,15.80
2010,08,13,00,32,15.80
2010,08,13,00,33,15.80
2010,08,13,00,34,15.80
2010,08,13,00,35,15.80
2010,08,13,00,36,15.80
2010,08,13,00,37,15.80
2010,08,13,00,38,15.80
2010,08,13,00,39,15.80
2010,08,13,00,40,15.80
2010,08,13,00,41,15.80
2010,08,13,00,42,15.70
2010,08,13,00,43,15.70
2010,08,13,00,44,15.70
2010,08,13,00,45,15.70
2010,08,13,00,46,15.70
2010,08,13,00,47,15.60
2010,08,13,00,48,15.60
2010,08,13,00,49,15.60
2010,08,13,00,50,15.60
2010,08,13,00,51,15.60
2010,08,13,00,52,15.60
2010,08,13,00,53,15.60
2010,08,13,00,54,15.60
2010,08,13,00,55,15.50
2010,08,13,00,56,15.50
2010,08,13,00,57,15.40
2010,08,13,00,58,15.30
2010,08,13,00,59,15.30
2010,08,13,01,00,15.20
2010,08,13,01,01,15.20
2010,08,13,01,02,15.10
2010,08,13,01,03,15.10
2010,08,13,01,04,15.10
2010,08,13,01,05,15.00
2010,08,13,01,06,15.00
2010,08,13,01,07,15.00
2010,08,13,01,08,15.00
2010,08,13,01,09,14.90
2010,08,13,01,10,14.90
2010,08,13,01,11,14.90
2010,08,13,01,12,14.90
2010,08,13,01,13,14.90
2010,08,13,01,14,14.90
2010,08,13,01,15,14.90
2010,08,13,01,16,14.90
2010,08,13,01,17,14.90
2010,08,13,01,18,14.90
2010,08,13,01,19,14.90
2010,08,13,01,20,14.90
2010,08,13,01,21,14.90
2010,08,13,01,22,14.90
2010,08,13,01,23,14.90
2010,08,13,01,24,14.80
2010,08,13,01,25,14.80
2010,08,13,01,26,14.80
2010,08,13,01,27,14.80
2010,08,13,01,28,14.80
2010,08,13,01,29,14.80
2010,08,13,01,30,14.80
2010,08,13,01,31,14.80
2010,08,13,01,32,14.70
2010,08,13,01,33,14.70
2010,08,13,01,34,14.70
2010,08,13,01,35,14.70
2010,08,13,01,36,14.60
2010,08,13,01,37,14.60
2010,08,13,01,38,14.60
2010,08,13,01,39,14.60
2010,08,13,01,40,14.60
2010,08,13,01,41,14.60
2010,08,13,01,42,14.60
2010,08,13,01,43,14.50
2010,08,13,01,44,14.50
2010,08,13,01,45,14.50
2010,08,13,01,46,14.50
2010,08,13,01,47,14.50
2010,08,13,01,48,14.50
2010,08,13,01,49,14.50
2010,08,13,01,50,14.50
2010,08,13,01,51,14.50
2010,08,13,01,52,14.50
2010,08,13,01,53,14.50
2010,08,13,01,54,14.50
2010,08,13,01,55,14.50
2010,08,13,01,56,14.40
2010,08,13,01,57,14.40
2010,08,13,01,58,14.40
2010,08,13,01,59,14.40
2010,08,13,02,00,14.30
2010,08,13,02,01,14.30
2010,08,13,02,02,14.20
2010,08,13,02,03,14.20
2010,08,13,02,04,14.20
2010,08,13,02,05,14.20
2010,08,13,02,06,14.20
2010,08,13,02,07,14.20
2010,08,13,02,08,14.20
2010,08,13,02,09,14.20
2010,08,13,02,10,14.20
2010,08,13,02,11,14.10
2010,08,13,02,12,14.10
2010,08,13,02,13,14.10
2010,08,13,02,14,14.10
2010,08,13,02,15,14.10
2010,08,13,02,16,14.10
2010,08,13,02,17,14.10
2010,08,13,02,18,14.10
2010,08,13,02,19,14.10
2010,08,13,02,20,14.10
2010,08,13,02,21,14.10
2010,08,13,02,22,14.00
2010,08,13,02,23,14.00
2010,08,13,02,24,14.00
2010,08,13,02,25,14.00
2010,08,13,02,26,14.00
2010,08,13,02,27,14.00
2010,08,13,02,28,13.90
2010,08,13,02,29,13.90
2010,08,13,02,30,13.90
2010,08,13,02,31,13.90
2010,08,13,02,32,13.90
2010,08,13,02,33,13.90
2010,08,13,02,34,13.90
2010,08,13,02,35,13.90
2010,08,13,02,36,13.90
2010,08,13,02,37,13.90
2010,08,13,02,38,13.90
2010,08,13,02,39,13.90
2010,08,13,02,40,13.90
2010,08,13,02,41,13.90
2010,08,13,02,42,13.90
2010,08,13,02,43,13.90
2010,08,13,02,44,14.00
2010,08,13,02,45,14.00
2010,08,13,02,46,14.00
2010,08,13,02,47,14.00
2010,08,13,02,48,14.00
2010,08,13,02,49,14.00
2010,08,13,02,50,14.00
2010,08,13,02,51,14.00
2010,08,13,02,52,14.00
2010,08,13,02,53,14.00
2010,08,13,02,54,14.00
2010,08,13,02,55,14.00
2010,08,13,02,56,14.00
2010,08,13,02,57,13.90
2010,08,13,02,58,13.90
2010,08,13,02,59,13.90
2010,08,13,03,00,13.90
2010,08,13,03,01,13.90
2010,08,13,03,02,13.90
2010,08,13,03,03,13.90
2010,08,13,03,04,13.90
2010,08,13,03,05,13.90
2010,08,13,03,06,13.90
2010,08,13,03,07,14.00
2010,08,13,03,08,14.00
2010,08,13,03,09,13.90
2010,08,13,03,10,13.90
2010,08,13,03,11,13.90
2010,08,13,03,12,13.90
2010,08,13,03,13,13.90
2010,08,13,03,14,13.90
2010,08,13,03,15,13.90
2010,08,13,03,16,13.90
2010,08,13,03,17,13.90
2010,08,13,03,18,13.90
2010,08,13,03,19,13.90
2010,08,13,03,20,13.90
2010,08,13,03,21,13.90
2010,08,13,03,22,13.90
2010,08,13,03,23,13.90
2010,08,13,03,24,13.90
2010,08,13,03,25,13.90
2010,08,13,03,26,13.90
2010,08,13,03,27,13.90
2010,08,13,03,28,13.90
2010,08,13,03,29,13.90
2010,08,13,03,30,13.90
2010,08,13,03,31,13.90
2010,08,13,03,32,13.90
2010,08,13,03,33,13.90
2010,08,13,03,34,14.00
2010,08,13,03,35,14.00
2010,08,13,03,36,14.00
2010,08,13,03,37,14.00
2010,08,13,03,38,13.90
2010,08,13,03,39,13.90
2010,08,13,03,40,13.90
2010,08,13,03,41,13.90
2010,08,13,03,42,13.80
2010,08,13,03,43,13.80
2010,08,13,03,44,13.80
2010,08,13,03,45,13.80
2010,08,13,03,46,13.70
2010,08,13,03,47,13.70
2010,08,13,03,48,13.70
2010,08,13,03,49,13.70
2010,08,13,03,50,13.70
2010,08,13,03,51,13.70
2010,08,13,03,52,13.70
2010,08,13,03,53,13.70
2010,08,13,03,54,13.70
2010,08,13,03,55,13.70
2010,08,13,03,56,13.70
2010,08,13,03,57,13.70
2010,08,13,03,58,13.70
2010,08,13,03,59,13.70
2010,08,13,04,00,13.70
2010,08,13,04,01,13.70
2010,08,13,04,02,13.70
2010,08,13,04,03,13.70
2010,08,13,04,04,13.70
2010,08,13,04,05,13.70
2010,08,13,04,06,13.70
2010,08,13,04,07,13.70
2010,08,13,04,08,13.70
2010,08,13,04,09,13.70
2010,08,13,04,10,13.70
2010,08,13,04,11,13.70
2010,08,13,04,12,13.70
2010,08,13,04,13,13.70
2010,08,13,04,14,13.70
2010,08,13,04,15,13.60
2010,08,13,04,16,13.60
2010,08,13,04,17,13.60
2010,08,13,04,18,13.60
2010,08,13,04,19,13.50
2010,08,13,04,20,13.50
2010,08,13,04,21,13.50
2010,08,13,04,22,13.50
2010,08,13,04,23,13.50
2010,08,13,04,24,13.50
2010,08,13,04,25,13.50
2010,08,13,04,26,13.50
2010,08,13,04,27,13.50
2010,08,13,04,28,13.50
2010,08,13,04,29,13.40
2010,08,13,04,30,13.40
2010,08,13,04,31,13.40
2010,08,13,04,32,13.40
2010,08,13,04,33,13.40
2010,08,13,04,34,13.40
2010,08,13,04,35,13.50
2010,08,13,04,36,13.50
2010,08,13,04,37,13.50
2010,08,13,04,38,13.50
2010,08,13,04,39,13.50
2010,08,13,04,40,13.50
2010,08,13,04,41,13.50
2010,08,13,04,42,13.50
2010,08,13,04,43,13.50
2010,08,13,04,44,13.50
2010,08,13,04,45,13.50
2010,08,13,04,46,13.50
2010,08,13,04,47,13.50
2010,08,13,04,48,13.50
2010,08,13,04,49,13.50
2010,08,13,04,50,13.50
2010,08,13,04,51,13.50
2010,08,13,04,52,13.50
2010,08,13,04,53,13.60
2010,08,13,04,54,13.50
2010,08,13,04,55,13.50
2010,08,13,04,56,13.50
2010,08,13,04,57,13.50
2010,08,13,04,58,13.50
2010,08,13,04,59,13.50
2010,08,13,05,00,13.50
2010,08,13,05,01,13.50
2010,08,13,05,02,13.50
2010,08,13,05,03,13.50
2010,08,13,05,04,13.50
2010,08,13,05,05,13.50
2010,08,13,05,06,13.40
2010,08,13,05,07,13.40
2010,08,13,05,08,13.40
2010,08,13,05,09,13.40
2010,08,13,05,10,13.40
2010,08,13,05,11,13.30
2010,08,13,05,12,13.30
2010,08,13,05,13,13.30
2010,08,13,05,14,13.30
2010,08,13,05,15,13.30
2010,08,13,05,16,13.30
2010,08,13,05,17,13.30
2010,08,13,05,18,13.30
2010,08,13,05,19,13.30
2010,08,13,05,20,13.30
2010,08,13,05,21,13.30
2010,08,13,05,22,13.30
2010,08,13,05,23,13.30
2010,08,13,05,24,13.30
2010,08,13,05,25,13.30
2010,08,13,05,26,13.30
2010,08,13,05,27,13.30
2010,08,13,05,28,13.30
2010,08,13,05,29,13.30
2010,08,13,05,30,13.30
2010,08,13,05,31,13.30
2010,08,13,05,32,13.30
2010,08,13,05,33,13.30
2010,08,13,05,34,13.30
2010,08,13,05,35,13.30
2010,08,13,05,36,13.30
2010,08,13,05,37,13.30
2010,08,13,05,38,13.30
2010,08,13,05,39,13.30
2010,08,13,05,40,13.30
2010,08,13,05,41,13.30
2010,08,13,05,42,13.30
2010,08,13,05,43,13.30
2010,08,13,05,44,13.30
2010,08,13,05,45,13.30
2010,08,13,05,46,13.30
2010,08,13,05,47,13.30
2010,08,13,05,48,13.30
2010,08,13,05,49,13.30
2010,08,13,05,50,13.30
2010,08,13,05,51,13.30
2010,08,13,05,52,13.30
2010,08,13,05,53,13.30
2010,08,13,05,54,13.30
2010,08,13,05,55,13.30
2010,08,13,08,27,18.00
2010,08,13,08,28,18.10
2010,08,13,08,29,18.10
2010,08,13,08,30,18.10
2010,08,13,08,31,18.10
2010,08,13,08,32,18.10
2010,08,13,08,33,18.10
2010,08,13,08,34,18.10
2010,08,13,08,35,18.10
2010,08,13,08,36,18.10
2010,08,13,08,37,18.10
2010,08,13,08,38,18.10
2010,08,13,08,39,18.20
2010,08,13,08,40,18.20
2010,08,13,08,41,18.10
2010,08,13,08,42,18.10
2010,08,13,08,43,18.10
2010,08,13,08,44,18.10
2010,08,13,08,45,18.10
2010,08,13,08,46,18.10
2010,08,13,08,47,18.10
2010,08,13,08,48,18.10
2010,08,13,08,49,18.10
2010,08,13,08,50,18.10
2010,08,13,08,51,18.10
2010,08,13,08,52,18.10
2010,08,13,08,53,18.10
2010,08,13,08,54,18.20
2010,08,13,08,55,18.20
2010,08,13,08,56,18.30
2010,08,13,08,57,18.30
2010,08,13,08,58,18.40
2010,08,13,08,59,18.40
2010,08,13,09,00,18.50
2010,08,13,09,01,18.50
2010,08,13,09,02,18.50
2010,08,13,09,03,18.50
2010,08,13,09,04,18.50
2010,08,13,09,05,18.70
2010,08,13,09,06,18.80
2010,08,13,09,07,18.80
2010,08,13,09,08,18.90
2010,08,13,09,09,18.90
2010,08,13,09,10,19.00
2010,08,13,09,11,19.10
2010,08,13,09,12,19.10
2010,08,13,09,13,19.10
2010,08,13,09,14,19.10
2010,08,13,09,15,19.10
2010,08,13,09,16,19.10
2010,08,13,09,17,19.10
2010,08,13,09,18,19.10
2010,08,13,09,19,19.00
2010,08,13,09,20,18.90
2010,08,13,09,21,18.90
2010,08,13,09,22,18.90
2010,08,13,09,23,18.90
2010,08,13,09,24,18.80
2010,08,13,09,25,18.70
2010,08,13,09,26,18.60
2010,08,13,09,27,18.50
2010,08,13,09,28,18.50
2010,08,13,09,29,18.50
2010,08,13,09,30,18.50
2010,08,13,09,31,18.60
2010,08,13,09,32,18.60
2010,08,13,09,33,18.60
2010,08,13,09,34,18.70
2010,08,13,09,35,18.70
2010,08,13,09,36,18.80
2010,08,13,09,37,18.90
2010,08,13,09,38,19.00
2010,08,13,09,39,19.10
2010,08,13,09,40,19.10
2010,08,13,09,41,19.20
2010,08,13,09,42,19.30
2010,08,13,09,43,19.40
2010,08,13,09,44,19.50
2010,08,13,09,45,19.60
2010,08,13,09,46,19.60
2010,08,13,09,47,19.70
2010,08,13,09,48,19.80
2010,08,13,09,49,19.90
2010,08,13,09,50,20.10
2010,08,13,09,51,20.20
2010,08,13,09,52,20.40
2010,08,13,09,53,20.50
2010,08,13,09,54,20.60
2010,08,13,09,55,20.70
2010,08,13,09,56,20.70
2010,08,13,09,57,20.60
2010,08,13,09,58,20.60
2010,08,13,09,59,20.60
2010,08,13,10,00,20.60
2010,08,13,10,01,20.60
2010,08,13,10,02,20.70
2010,08,13,10,03,20.70
2010,08,13,10,04,20.80
2010,08,13,10,05,20.90
2010,08,13,10,06,21.00
2010,08,13,10,07,21.10
2010,08,13,10,08,21.20
2010,08,13,10,09,21.30
2010,08,13,10,10,21.30
2010,08,13,10,11,21.50
2010,08,13,10,12,21.60
2010,08,13,10,13,21.70
2010,08,13,10,14,21.80
2010,08,13,10,15,21.70
2010,08,13,10,16,21.50
2010,08,13,10,17,21.40
2010,08,13,10,18,21.20
2010,08,13,10,19,20.90
2010,08,13,10,20,20.80
2010,08,13,10,21,20.60
2010,08,13,10,22,20.40
2010,08,13,10,23,20.30
2010,08,13,10,24,20.20
2010,08,13,10,25,20.20
2010,08,13,10,26,20.20
2010,08,13,10,27,20.20
2010,08,13,10,28,20.20
2010,08,13,10,29,20.20
2010,08,13,10,30,20.20
2010,08,13,10,31,20.20
2010,08,13,10,32,20.20
2010,08,13,10,33,20.20
2010,08,13,10,34,20.20
2010,08,13,10,35,20.20
2010,08,13,10,36,20.20
2010,08,13,10,37,20.20
2010,08,13,10,38,20.30
2010,08,13,10,39,20.30
2010,08,13,10,40,20.40
2010,08,13,10,41,20.50
2010,08,13,10,42,20.60
2010,08,13,10,43,20.70
2010,08,13,10,44,20.80
2010,08,13,10,45,20.90
2010,08,13,10,46,21.00
2010,08,13,10,47,21.10
2010,08,13,10,48,21.20
2010,08,13,10,49,21.30
2010,08,13,10,50,21.30
2010,08,13,10,51,21.30
2010,08,13,10,52,21.20
2010,08,13,10,53,21.20
2010,08,13,10,54,21.10
2010,08,13,10,55,21.00
2010,08,13,10,56,20.90
2010,08,13,10,57,20.80
2010,08,13,10,58,20.70
2010,08,13,10,59,20.70
2010,08,13,11,00,20.60
2010,08,13,11,01,20.60
2010,08,13,11,02,20.60
2010,08,13,11,03,20.70
2010,08,13,11,04,20.70
2010,08,13,11,05,20.80
2010,08,13,11,06,20.90
2010,08,13,11,07,20.80
2010,08,13,11,08,20.70
2010,08,13,11,09,20.60
2010,08,13,11,10,20.40
2010,08,13,11,11,20.20
2010,08,13,11,12,20.10
2010,08,13,11,13,20.00
2010,08,13,11,14,19.90
2010,08,13,11,15,19.90
2010,08,13,11,16,19.90
2010,08,13,11,17,20.00
2010,08,13,11,18,20.10
2010,08,13,11,19,20.20
2010,08,13,11,20,20.30
2010,08,13,11,21,20.50
2010,08,13,11,22,20.60
2010,08,13,11,23,20.60
2010,08,13,11,24,20.70
2010,08,13,11,25,20.80
2010,08,13,11,26,20.90
2010,08,13,11,27,20.80
2010,08,13,11,28,20.80
2010,08,13,11,29,20.80
2010,08,13,11,30,20.70
2010,08,13,11,31,20.60
2010,08,13,11,32,20.60
2010,08,13,11,33,20.60
2010,08,13,11,34,20.70
2010,08,13,11,35,20.80
2010,08,13,11,36,20.90
2010,08,13,11,37,20.80
2010,08,13,11,38,20.70
2010,08,13,11,39,20.60
2010,08,13,11,40,20.60
2010,08,13,11,41,20.50
2010,08,13,11,42,20.60
2010,08,13,11,43,20.60
2010,08,13,11,44,20.60
2010,08,13,11,45,20.70
2010,08,13,11,46,20.90
2010,08,13,11,47,21.00
2010,08,13,11,48,21.00
2010,08,13,11,49,21.10
2010,08,13,11,50,21.20
2010,08,13,11,51,21.30
2010,08,13,11,52,21.40
2010,08,13,11,53,21.50
2010,08,13,11,54,21.60
2010,08,13,11,55,21.70
2010,08,13,11,56,21.80
2010,08,13,11,57,21.90
2010,08,13,11,58,22.00
2010,08,13,11,59,22.00
2010,08,13,12,00,22.00
2010,08,13,12,01,21.80
2010,08,13,12,02,21.70
2010,08,13,12,03,21.50
2010,08,13,12,04,21.30
2010,08,13,12,05,21.10
2010,08,13,12,06,21.10
2010,08,13,12,07,21.10
2010,08,13,12,08,21.10
2010,08,13,12,09,21.10
2010,08,13,12,10,21.20
2010,08,13,12,11,21.30
2010,08,13,12,12,21.40
2010,08,13,12,13,21.60
2010,08,13,12,14,21.70
2010,08,13,12,15,21.80
2010,08,13,12,16,21.70
2010,08,13,12,17,21.80
2010,08,13,12,18,21.90
2010,08,13,12,19,22.10
2010,08,13,12,20,22.30
2010,08,13,12,21,22.40
2010,08,13,12,22,22.60
2010,08,13,12,23,22.80
2010,08,13,12,24,23.10
2010,08,13,12,25,23.30
2010,08,13,12,26,23.50
2010,08,13,12,27,23.70
2010,08,13,12,28,23.80
2010,08,13,12,29,24.00
2010,08,13,12,30,24.10
2010,08,13,12,31,24.20
2010,08,13,12,32,24.30
2010,08,13,12,33,24.30
2010,08,13,12,34,24.40
2010,08,13,12,35,24.50
2010,08,13,12,36,24.50
2010,08,13,12,37,24.40
2010,08,13,12,38,24.30
2010,08,13,12,39,24.30
2010,08,13,12,40,24.40
2010,08,13,12,41,24.60
2010,08,13,12,42,24.80
2010,08,13,12,43,24.70
2010,08,13,12,44,24.50
2010,08,13,12,45,24.40
2010,08,13,12,46,24.20
2010,08,13,12,47,24.00
2010,08,13,12,48,23.80
2010,08,13,12,49,23.80
2010,08,13,12,50,23.80
2010,08,13,12,51,23.90
2010,08,13,12,52,24.00
2010,08,13,12,53,24.10
2010,08,13,12,54,24.20
2010,08,13,12,55,24.40
2010,08,13,12,56,24.50
2010,08,13,12,57,24.80
2010,08,13,12,58,25.00
2010,08,13,12,59,25.20
2010,08,13,13,00,25.50
2010,08,13,13,01,25.80
2010,08,13,13,02,25.70
2010,08,13,13,03,25.40
2010,08,13,13,04,24.80
2010,08,13,13,05,24.20
2010,08,13,13,06,23.90
2010,08,13,13,07,23.70
2010,08,13,13,08,23.50
2010,08,13,13,09,23.30
2010,08,13,13,10,23.30
2010,08,13,13,11,23.30
2010,08,13,13,12,23.30
2010,08,13,13,13,23.30
2010,08,13,13,14,23.50
2010,08,13,13,15,23.60
2010,08,13,13,16,23.60
2010,08,13,13,17,23.60
2010,08,13,13,18,23.60
2010,08,13,13,19,23.50
2010,08,13,13,20,23.40
2010,08,13,13,21,23.60
2010,08,13,13,22,23.60
2010,08,13,13,23,23.60
2010,08,13,13,24,23.60
2010,08,13,13,25,23.60
2010,08,13,13,26,23.70
2010,08,13,13,27,23.70
2010,08,13,13,28,23.80
2010,08,13,13,29,24.00
2010,08,13,13,30,24.10
2010,08,13,13,31,24.10
2010,08,13,13,32,24.10
2010,08,13,13,33,24.10
2010,08,13,13,34,24.10
2010,08,13,13,35,24.00
2010,08,13,13,36,23.90
2010,08,13,13,37,23.80
2010,08,13,13,38,24.00
2010,08,13,13,39,24.10
2010,08,13,13,40,24.20
2010,08,13,13,41,24.40
2010,08,13,13,42,24.50
2010,08,13,13,43,24.70
2010,08,13,13,44,24.90
2010,08,13,13,45,25.30
2010,08,13,13,46,25.50
2010,08,13,13,47,25.80
2010,08,13,13,48,26.10
2010,08,13,13,49,26.50
2010,08,13,13,50,26.80
2010,08,13,13,51,27.00
2010,08,13,13,52,27.10
2010,08,13,13,53,27.30
2010,08,13,13,54,27.50
2010,08,13,13,55,27.70
2010,08,13,13,56,28.00
2010,08,13,13,57,28.20
2010,08,13,13,58,28.50
2010,08,13,13,59,28.70
2010,08,13,14,00,28.90
2010,08,13,14,01,29.10
2010,08,13,14,02,29.20
2010,08,13,14,03,29.40
2010,08,13,14,04,29.50
2010,08,13,14,05,29.60
2010,08,13,14,06,29.70
2010,08,13,14,07,29.70
2010,08,13,14,08,29.70
2010,08,13,14,09,29.70
2010,08,13,14,10,29.70
2010,08,13,14,11,29.70
2010,08,13,14,12,29.70
2010,08,13,14,13,29.70
2010,08,13,14,14,29.70
2010,08,13,14,15,29.70
2010,08,13,14,16,29.70
2010,08,13,14,32,30.40
2010,08,13,14,33,30.40
2010,08,13,14,34,30.40
2010,08,13,14,35,30.50
2010,08,13,14,36,30.60
2010,08,13,14,37,30.60
2010,08,13,14,38,30.60
2010,08,13,14,39,30.60
2010,08,13,14,40,30.70
2010,08,13,14,41,30.70
2010,08,13,14,42,30.80
2010,08,13,14,43,30.80
2010,08,13,14,44,30.80
2010,08,13,14,45,30.50
2010,08,13,14,46,29.80
2010,08,13,14,47,28.90
2010,08,13,14,48,28.20
2010,08,13,14,49,27.80
2010,08,13,14,50,27.60
2010,08,13,14,51,27.40
2010,08,13,14,52,27.10
2010,08,13,14,53,26.80
2010,08,13,14,54,26.80
2010,08,13,14,55,26.80
2010,08,13,14,56,26.90
2010,08,13,14,57,27.20
2010,08,13,14,58,27.40
2010,08,13,14,59,27.70
2010,08,13,15,00,28.00
2010,08,13,15,01,28.30
2010,08,13,15,02,28.60
2010,08,13,15,03,28.90
2010,08,13,15,04,29.20
2010,08,13,15,05,29.50
2010,08,13,15,06,29.70
2010,08,13,15,07,29.90
2010,08,13,15,08,29.90
2010,08,13,15,09,29.50
2010,08,13,15,10,29.30
2010,08,13,15,11,29.30
2010,08,13,15,12,29.30
2010,08,13,15,13,29.10
2010,08,13,15,14,29.10
2010,08,13,15,15,29.30
2010,08,13,15,16,29.30
2010,08,13,15,17,29.40
2010,08,13,15,18,29.40
2010,08,13,15,19,29.40
2010,08,13,15,20,29.50
2010,08,13,15,21,29.70
2010,08,13,15,22,29.90
2010,08,13,15,23,30.20
2010,08,13,15,24,30.40
2010,08,13,15,25,30.60
2010,08,13,15,26,30.10
2010,08,13,15,27,29.20
2010,08,13,15,28,28.60
2010,08,13,15,29,28.20
2010,08,13,15,30,28.00
2010,08,13,15,31,27.80
2010,08,13,15,32,27.60
2010,08,13,15,33,27.30
2010,08,13,15,34,26.80
2010,08,13,15,35,26.40
2010,08,13,15,36,26.10
2010,08,13,15,37,25.80
2010,08,13,15,38,25.50
2010,08,13,15,39,25.30
2010,08,13,15,40,25.20
2010,08,13,15,41,25.10
2010,08,13,15,42,25.00
2010,08,13,15,43,25.00
2010,08,13,15,44,25.00
2010,08,13,15,45,25.10
2010,08,13,15,46,25.20
2010,08,13,15,47,25.20
2010,08,13,15,48,25.20
2010,08,13,15,49,25.00
2010,08,13,15,50,24.90
2010,08,13,15,51,24.80
2010,08,13,15,52,24.60
2010,08,13,15,53,24.50
2010,08,13,15,54,24.50
2010,08,13,15,55,24.60
2010,08,13,15,56,24.70
2010,08,13,15,57,24.90
2010,08,13,15,58,25.00
2010,08,13,15,59,25.10
2010,08,13,16,00,25.10
2010,08,13,16,01,25.10
2010,08,13,16,02,25.10
2010,08,13,16,03,25.10
2010,08,13,16,04,25.20
2010,08,13,16,05,25.30
2010,08,13,16,06,25.40
2010,08,13,16,07,25.50
2010,08,13,16,08,25.70
2010,08,13,16,09,25.70
2010,08,13,16,10,25.80
2010,08,13,16,11,25.80
2010,08,13,16,12,25.90
2010,08,13,16,13,25.90
2010,08,13,16,14,26.00
2010,08,13,16,15,26.20
2010,08,13,16,16,26.20
2010,08,13,16,17,26.10
2010,08,13,16,18,26.10
2010,08,13,16,19,26.00
2010,08,13,16,20,25.80
2010,08,13,16,21,25.70
2010,08,13,16,22,25.60
2010,08,13,16,23,25.50
2010,08,13,16,24,25.40
2010,08,13,16,25,25.30
2010,08,13,16,26,25.20
2010,08,13,16,27,25.30
2010,08,13,16,28,25.30
2010,08,13,16,29,25.30
2010,08,13,16,30,25.40
2010,08,13,16,31,25.50
2010,08,13,16,32,25.60
2010,08,13,16,33,25.60
2010,08,13,16,34,25.60
2010,08,13,16,35,25.40
2010,08,13,16,36,25.30
2010,08,13,16,37,25.20
2010,08,13,16,38,25.20
2010,08,13,16,39,25.20
2010,08,13,16,40,25.20
2010,08,13,16,41,25.30
2010,08,13,16,42,25.50
2010,08,13,16,43,25.60
2010,08,13,16,44,25.70
2010,08,13,16,45,25.70
2010,08,13,16,46,25.70
2010,08,13,16,47,25.60
2010,08,13,16,48,25.50
2010,08,13,16,49,25.60
2010,08,13,16,50,25.60
2010,08,13,16,51,25.80
2010,08,13,16,52,25.90
2010,08,13,16,53,26.00
2010,08,13,16,54,26.00
2010,08,13,16,55,25.90
2010,08,13,16,56,25.80
2010,08,13,16,57,25.90
2010,08,13,16,58,26.00
2010,08,13,16,59,26.10
2010,08,13,17,00,26.10
2010,08,13,17,01,26.10
2010,08,13,17,02,26.10
2010,08,13,17,03,26.10
2010,08,13,17,04,26.10
2010,08,13,17,05,26.10
2010,08,13,17,06,26.20
2010,08,13,17,07,26.30
2010,08,13,17,08,26.40
2010,08,13,17,09,26.50
2010,08,13,17,10,26.60
2010,08,13,17,11,26.60
2010,08,13,17,12,26.60
2010,08,13,17,13,26.60
2010,08,13,17,14,26.60
2010,08,13,17,15,26.60
2010,08,13,17,16,26.50
2010,08,13,17,17,26.40
2010,08,13,17,18,26.40
2010,08,13,17,19,26.30
2010,08,13,17,20,26.30
2010,08,13,17,21,26.20
2010,08,13,17,22,26.20
2010,08,13,17,23,26.10
2010,08,13,17,24,26.10
2010,08,13,17,25,26.20
2010,08,13,17,26,26.20
2010,08,13,17,27,26.20
2010,08,13,17,28,26.20
2010,08,13,17,29,26.30
2010,08,13,17,30,26.30
2010,08,13,17,31,26.40
2010,08,13,17,32,26.40
2010,08,13,17,33,26.40
2010,08,13,17,34,26.30
2010,08,13,17,35,26.30
2010,08,13,17,36,26.30
2010,08,13,17,37,26.40
2010,08,13,17,38,26.40
2010,08,13,17,39,26.40
2010,08,13,17,40,26.30
2010,08,13,17,41,26.30
2010,08,13,17,42,26.40
2010,08,13,17,43,26.30
2010,08,13,17,44,26.30
2010,08,13,17,45,26.30
2010,08,13,17,46,26.30
2010,08,13,17,47,26.30
2010,08,13,17,48,26.30
2010,08,13,17,49,26.30
2010,08,13,17,50,26.30
2010,08,13,17,51,26.40
2010,08,13,17,52,26.60
2010,08,13,17,53,26.60
2010,08,13,17,54,26.70
2010,08,13,17,55,26.70
2010,08,13,17,56,26.70
2010,08,13,17,57,26.70
2010,08,13,17,58,26.70
2010,08,13,17,59,26.70
2010,08,13,18,00,26.80
2010,08,13,18,01,26.80
2010,08,13,18,02,26.70
2010,08,13,18,03,26.70
2010,08,13,18,04,26.60
2010,08,13,18,05,26.60
2010,08,13,18,06,26.60
2010,08,13,18,07,26.60
2010,08,13,18,08,26.60
2010,08,13,18,09,26.60
2010,08,13,18,10,26.60
2010,08,13,18,11,26.70
2010,08,13,18,12,26.70
2010,08,13,18,13,26.60
2010,08,13,18,14,26.60
2010,08,13,18,15,26.60
2010,08,13,18,16,26.60
2010,08,13,18,17,26.60
2010,08,13,18,18,26.60
2010,08,13,18,19,26.60
2010,08,13,18,20,26.60
2010,08,13,18,21,26.60
2010,08,13,18,22,26.60
2010,08,13,18,23,26.70
2010,08,13,18,24,26.80
2010,08,13,18,25,26.90
2010,08,13,18,26,26.90
2010,08,13,18,27,27.00
2010,08,13,18,28,27.10
2010,08,13,18,29,27.10
2010,08,13,18,30,27.10
2010,08,13,18,31,27.10
2010,08,13,18,32,26.90
2010,08,13,18,33,26.90
2010,08,13,18,34,26.90
2010,08,13,18,35,26.80
2010,08,13,18,36,26.80
2010,08,13,18,37,26.80
2010,08,13,18,38,26.80
2010,08,13,18,39,26.80
2010,08,13,18,40,26.80
2010,08,13,18,41,26.80
2010,08,13,18,42,26.70
2010,08,13,18,43,26.70
2010,08,13,18,44,26.60
2010,08,13,18,45,26.60
2010,08,13,18,46,26.60
2010,08,13,18,47,26.50
2010,08,13,18,48,26.40
2010,08,13,18,49,26.40
2010,08,13,18,50,26.30
2010,08,13,18,51,26.20
2010,08,13,18,52,26.20
2010,08,13,18,53,26.10
2010,08,13,18,54,26.00
2010,08,13,18,55,26.00
2010,08,13,18,56,26.00
2010,08,13,18,57,26.00
2010,08,13,18,58,26.00
2010,08,13,18,59,26.00
2010,08,13,19,00,25.90
2010,08,13,19,01,25.90
2010,08,13,19,02,25.90
2010,08,13,19,03,25.90
2010,08,13,19,04,25.90
2010,08,13,19,05,25.90
2010,08,13,19,06,25.90
2010,08,13,19,07,26.00
2010,08,13,19,08,26.00
2010,08,13,19,09,26.00
2010,08,13,19,10,26.00
2010,08,13,19,11,25.90
2010,08,13,19,12,25.90
2010,08,13,19,13,25.90
2010,08,13,19,14,25.90
2010,08,13,19,15,25.80
2010,08,13,19,16,25.80
2010,08,13,19,17,25.80
2010,08,13,19,18,25.80
2010,08,13,19,19,25.70
2010,08,13,19,20,25.70
2010,08,13,19,21,25.60
2010,08,13,19,22,25.60
2010,08,13,19,23,25.60
2010,08,13,19,24,25.60
2010,08,13,19,25,25.50
2010,08,13,19,26,25.60
2010,08,13,19,27,25.60
2010,08,13,19,28,25.60
2010,08,13,19,29,25.60
2010,08,13,19,30,25.50
2010,08,13,19,31,25.50
2010,08,13,19,32,25.50
2010,08,13,19,33,25.50
2010,08,13,19,34,25.40
2010,08,13,19,35,25.50
2010,08,13,19,36,25.50
2010,08,13,19,37,25.50
2010,08,13,19,38,25.50
2010,08,13,19,39,25.50
2010,08,13,19,40,25.50
2010,08,13,19,41,25.50
2010,08,13,19,42,25.50
2010,08,13,19,43,25.50
2010,08,13,19,44,25.40
2010,08,13,19,45,25.40
2010,08,13,19,46,25.30
2010,08,13,19,47,25.30
2010,08,13,19,48,25.30
2010,08,13,19,49,25.20
2010,08,13,19,50,25.20
2010,08,13,19,51,25.20
2010,08,13,19,52,25.20
2010,08,13,19,53,25.20
2010,08,13,19,54,25.20
2010,08,13,19,55,25.20
2010,08,13,19,56,25.20
2010,08,13,19,57,25.10
2010,08,13,19,58,25.10
2010,08,13,19,59,25.10
2010,08,13,20,00,25.10
2010,08,13,20,01,25.10
2010,08,13,20,02,25.10
2010,08,13,20,03,25.10
2010,08,13,20,04,25.10
2010,08,13,20,05,25.10